Escatawpa, MS

12:03 PM CST on February 24, 2017 (GMT -0600)
Lott International

Weather History for KPQL - August, 2013

Change the Weather History Date:

Sunday, August 18, 2013

  Actual Average Record
Temperature  
Mean Temperature 76 °F -  
Max Temperature 82 °F 90 °F 99 °F (1981)
Min Temperature 71 °F 74 °F 62 °F (2004)
Cooling Degree Days 12    
Growing Degree Days 26 (Base 50)    
Moisture  
Dew Point 73 °F    
Average Humidity 95    
Maximum Humidity 100    
Minimum Humidity 79    
Precipitation  
Precipitation 3.33 in - - ()
Sea Level Pressure  
Sea Level Pressure 29.98 in    
Wind  
Wind Speed 5 mph (ESE)    
Max Wind Speed 17 mph    
Max Gust Speed 28 mph    
Visibility 5 miles    
Events Rain , Thunderstorm    
Averages and records for this station are not official NWS values.
T = Trace of Precipitation, MM = Missing Value Source: NWS Daily Summary

Daily Weather History Graph

Daily Weather History Graph

Search for Another Location

Airport or City:

Trip Planner

Search our weather history database for the weather conditions in past years. The results will help you decide how hot, cold, wet, or windy it might be!

Date:

Astronomy

Aug. 18, 2013 Rise Set
Actual Time 6:22 AM CDT 7:32 PM CDT
Civil Twilight 5:57 AM CDT 7:57 PM CDT
Nautical Twilight 5:27 AM CDT 8:27 PM CDT
Astronomical Twilight 4:57 AM CDT 8:57 PM CDT
Moon 5:34 PM CDT (8/18) 3:37 AM CDT (8/18)
Length of Visible Light 13h 59m
Length of Day
13h 09m
Waxing Gibbous, 92% of the Moon is Illuminated
Aug 18
Waxing Gibbous
Aug 20
Full
Aug 28
Last Quarter
Sep 5
New
Sep 12
First Quarter

Hourly Weather History & Observations

Time (CDT) Temp. Heat Index Dew Point Humidity Pressure Visibility Wind Dir Wind Speed Gust Speed Precip Events Conditions
12:00 AM 73.4 °F - 73.4 °F 100% 29.98 in 2.5 mi Calm Calm - 0.04 in Rain Heavy Rain
12:06 AM 73.4 °F - 71.6 °F 94% 29.98 in 1.8 mi Calm Calm - 0.07 in Rain Heavy Rain
12:13 AM 73.4 °F - 71.6 °F 94% 29.98 in 3.0 mi Calm Calm - 0.08 in Rain Rain
12:22 AM 73.4 °F - 73.4 °F 100% 29.97 in 5.0 mi Calm Calm - 0.08 in Rain Light Rain
12:35 AM 73.4 °F - 73.4 °F 100% 29.98 in 9.0 mi ENE 5.8 mph - 0.08 in   Overcast
12:53 AM 73.0 °F - 73.0 °F 100% 29.97 in 9.0 mi ENE 6.9 mph - 0.08 in   Overcast
1:15 AM 73.4 °F - 71.6 °F 94% 29.96 in 2.5 mi Calm Calm - 0.06 in Rain Heavy Rain
1:17 AM 73.4 °F - 71.6 °F 94% 29.96 in 2.5 mi NNE 3.5 mph - 0.08 in Rain Heavy Rain
1:22 AM 73.4 °F - 71.6 °F 94% 29.96 in 3.0 mi NNE 3.5 mph - 0.09 in Rain Heavy Rain
1:31 AM 73.4 °F - 71.6 °F 94% 29.97 in 2.5 mi Calm Calm - 0.15 in Rain Heavy Rain
1:39 AM 73.4 °F - 71.6 °F 94% 29.97 in 2.5 mi NE 4.6 mph - 0.20 in Rain Heavy Rain
1:53 AM 73.0 °F - 72.0 °F 96% 29.96 in 4.0 mi NE 8.1 mph - 0.26 in Rain Rain
2:17 AM 73.4 °F - 71.6 °F 94% 29.97 in 5.0 mi West 6.9 mph - 0.04 in Rain Rain
2:23 AM 73.4 °F - 71.6 °F 94% 29.97 in 1.8 mi West 4.6 mph - 0.13 in Rain Heavy Rain
2:28 AM 71.6 °F - 71.6 °F 100% 29.97 in 0.8 mi West 12.7 mph 20.7 mph 0.36 in Rain Heavy Rain
2:33 AM 73.4 °F - 71.6 °F 94% 29.97 in 0.8 mi NNW 5.8 mph 20.7 mph 0.46 in Rain , Thunderstorm Heavy Thunderstorms and Rain
2:41 AM 73.4 °F - 71.6 °F 94% 29.97 in 1.5 mi East 4.6 mph - 0.54 in Rain , Thunderstorm Heavy Thunderstorms and Rain
2:48 AM 73.4 °F - 71.6 °F 94% 29.97 in 2.5 mi ENE 9.2 mph - 0.60 in Rain , Thunderstorm Heavy Thunderstorms and Rain
2:53 AM 73.0 °F - 72.0 °F 96% 29.97 in 2.5 mi NE 8.1 mph - 0.63 in Rain , Thunderstorm Heavy Thunderstorms and Rain
3:00 AM 75.2 °F - 71.6 °F 89% 29.96 in 4.0 mi NE 4.6 mph - 0.03 in Rain , Thunderstorm Heavy Thunderstorms and Rain
3:31 AM 73.4 °F - 71.6 °F 94% 29.96 in 10.0 mi East 5.8 mph - 0.04 in Rain Light Rain
3:42 AM 71.6 °F - 71.6 °F 100% 29.96 in 10.0 mi NE 6.9 mph - 0.04 in   Mostly Cloudy
3:53 AM 72.0 °F - 71.1 °F 97% 29.96 in 10.0 mi NE 6.9 mph - 0.04 in   Mostly Cloudy
4:53 AM 72.0 °F - 71.1 °F 97% 29.96 in 10.0 mi NE 6.9 mph - 0.00 in   Scattered Clouds
5:06 AM 71.6 °F - 71.6 °F 100% 29.95 in 10.0 mi ENE 6.9 mph - N/A Thunderstorm Scattered Clouds
5:23 AM 73.4 °F - 71.6 °F 94% 29.96 in 1.8 mi ESE 9.2 mph - 0.21 in Rain , Thunderstorm Heavy Rain
5:27 AM 73.4 °F - 71.6 °F 94% 29.96 in 0.8 mi East 8.1 mph - 0.40 in Rain Heavy Rain
5:32 AM 73.4 °F - 71.6 °F 94% 29.96 in 0.8 mi ESE 5.8 mph - 0.62 in Rain , Thunderstorm Heavy Thunderstorms and Rain
5:38 AM 73.4 °F - 71.6 °F 94% 29.96 in 1.0 mi East 4.6 mph - 0.76 in Rain , Thunderstorm Heavy Thunderstorms and Rain
5:45 AM 73.4 °F - 71.6 °F 94% 29.95 in 3.0 mi NE 4.6 mph - 0.77 in Rain , Thunderstorm Light Thunderstorms and Rain
5:51 AM 73.4 °F - 71.6 °F 94% 29.95 in 9.0 mi NE 3.5 mph - 0.77 in Rain Light Rain
5:53 AM 73.0 °F - 72.0 °F 96% 29.96 in 9.0 mi NE 4.6 mph - 0.77 in Rain Light Rain
5:57 AM 73.4 °F - 71.6 °F 94% 29.95 in 6.0 mi NNE 4.6 mph - 0.01 in Rain Rain
6:13 AM 73.4 °F - 73.4 °F 100% 29.95 in 3.0 mi NE 5.8 mph - 0.08 in Rain , Thunderstorm Heavy Thunderstorms and Rain
6:53 AM 75.0 °F - 73.9 °F 96% 29.96 in 8.0 mi East 8.1 mph - 0.08 in Rain , Thunderstorm Light Rain
7:07 AM 75.2 °F - 73.4 °F 94% 29.96 in 5.0 mi ENE 8.1 mph - 0.03 in Rain , Thunderstorm Heavy Thunderstorms and Rain
7:26 AM 73.4 °F - 73.4 °F 100% 29.95 in 7.0 mi East 9.2 mph - 0.05 in Rain Light Rain
7:35 AM 73.4 °F - 73.4 °F 100% 29.97 in 2.0 mi ESE 11.5 mph - 0.12 in Rain Light Rain
7:39 AM 73.4 °F - 73.4 °F 100% 29.97 in 1.0 mi ESE 12.7 mph - 0.36 in Rain Heavy Rain
7:46 AM 73.4 °F - 73.4 °F 100% 29.96 in 0.8 mi ENE 12.7 mph 19.6 mph 0.68 in Rain Heavy Rain
7:50 AM 73.4 °F - 73.4 °F 100% 29.96 in 1.0 mi East 9.2 mph 19.6 mph 0.72 in Rain , Thunderstorm Heavy Thunderstorms and Rain
7:53 AM 73.9 °F - 73.0 °F 97% 29.97 in 1.5 mi Variable 6.9 mph 19.6 mph 0.76 in Rain , Thunderstorm Heavy Thunderstorms and Rain
8:02 AM 73.4 °F - 73.4 °F 100% 29.96 in 1.8 mi East 5.8 mph - 0.04 in Rain , Thunderstorm Heavy Thunderstorms and Rain
8:07 AM 73.4 °F - 73.4 °F 100% 29.96 in 3.0 mi ENE 8.1 mph - 0.05 in Rain , Thunderstorm Thunderstorms and Rain
8:18 AM 73.4 °F - 73.4 °F 100% 29.97 in 5.0 mi East 8.1 mph - 0.06 in Rain Light Rain
8:38 AM 75.2 °F - 73.4 °F 94% 29.98 in 5.0 mi ESE 11.5 mph - 0.09 in Rain , Thunderstorm Rain
8:47 AM 75.2 °F - 73.4 °F 94% 29.99 in 2.5 mi ESE 9.2 mph 19.6 mph 0.13 in Rain Rain
8:53 AM 75.0 °F - 73.9 °F 96% 30.00 in 3.0 mi ESE 12.7 mph 19.6 mph 0.15 in Rain Heavy Rain
8:57 AM 75.2 °F - 73.4 °F 94% 30.00 in 2.5 mi ESE 12.7 mph - 0.04 in Rain , Thunderstorm Heavy Rain
9:09 AM 75.2 °F - 73.4 °F 94% 30.00 in 2.5 mi SE 12.7 mph 20.7 mph 0.10 in Rain Heavy Rain
9:37 AM 73.4 °F - 73.4 °F 100% 30.01 in 2.0 mi ESE 12.7 mph 23.0 mph 0.27 in Rain Heavy Rain
9:43 AM 73.4 °F - 73.4 °F 100% 30.01 in 2.5 mi ESE 15.0 mph 21.9 mph 0.30 in Rain Heavy Rain
9:53 AM 73.9 °F - 72.0 °F 93% 30.01 in 2.0 mi ESE 16.1 mph 26.5 mph 0.35 in Rain Heavy Rain
10:11 AM 73.4 °F - 71.6 °F 94% 30.00 in 1.5 mi ESE 17.3 mph 27.6 mph 0.09 in Rain Heavy Rain
10:17 AM 73.4 °F - 71.6 °F 94% 29.99 in 2.0 mi ESE 16.1 mph 27.6 mph 0.11 in Rain Heavy Rain
10:53 AM - - - N/A% 30.01 in - North - - 0.16 in   Unknown
11:53 AM 73.0 °F - 71.1 °F 93% 30.01 in 3.0 mi ESE 16.1 mph 23.0 mph N/A Rain Heavy Rain
12:07 PM 73.4 °F - 73.4 °F 100% 30.01 in 6.0 mi SE 16.1 mph 24.2 mph 0.00 in Rain Light Rain
12:38 PM 73.4 °F - 73.4 °F 100% 30.01 in 6.0 mi ESE 11.5 mph - 0.02 in Rain Rain
12:53 PM 73.9 °F - 72.0 °F 93% 30.00 in 7.0 mi ESE 10.4 mph - 0.02 in Rain Light Rain
1:25 PM 75.2 °F - 73.4 °F 94% 29.99 in 7.0 mi ESE 10.4 mph - 0.00 in Rain Light Rain
1:53 PM 75.9 °F - 73.9 °F 94% 29.99 in 7.0 mi SE 5.8 mph - 0.00 in   Overcast
2:12 PM 78.8 °F - 75.2 °F 89% 29.98 in 9.0 mi SSE 13.8 mph 21.9 mph 0.00 in Rain Light Rain
2:36 PM 78.8 °F - 75.2 °F 89% 29.97 in 9.0 mi South 12.7 mph 19.6 mph 0.00 in Thunderstorm Mostly Cloudy
2:53 PM 78.1 °F - 75.9 °F 93% 29.96 in 8.0 mi South 10.4 mph 17.3 mph 0.00 in Rain , Thunderstorm Light Rain
3:14 PM 78.8 °F - 77.0 °F 94% 29.95 in 5.0 mi South 9.2 mph - 0.02 in Rain Light Rain
3:46 PM 80.6 °F 86.2 °F 75.2 °F 84% 29.95 in 10.0 mi South 6.9 mph 17.3 mph 0.03 in   Mostly Cloudy
3:53 PM 80.1 °F 85.8 °F 77.0 °F 90% 29.96 in 10.0 mi South 6.9 mph - 0.03 in   Mostly Cloudy
4:26 PM 80.6 °F 86.2 °F 75.2 °F 84% 29.97 in 10.0 mi South 5.8 mph - N/A   Overcast
4:51 PM 82.4 °F 89.5 °F 75.2 °F 79% 29.97 in 10.0 mi South 6.9 mph - N/A   Mostly Cloudy
4:53 PM 82.0 °F 89.4 °F 75.9 °F 82% 29.98 in 10.0 mi South 5.8 mph - N/A   Mostly Cloudy
5:53 PM 80.1 °F 85.1 °F 75.0 °F 85% 29.98 in 10.0 mi SSW 4.6 mph - N/A   Overcast
6:28 PM 80.6 °F 86.2 °F 75.2 °F 84% 29.98 in 10.0 mi SSW 4.6 mph - N/A   Mostly Cloudy
6:53 PM 80.1 °F 85.1 °F 75.0 °F 85% 29.98 in 10.0 mi South 4.6 mph - N/A   Partly Cloudy
7:53 PM 78.1 °F - 75.0 °F 90% 29.99 in 10.0 mi South 3.5 mph - N/A   Partly Cloudy
8:53 PM 77.0 °F - 75.0 °F 94% 30.00 in 10.0 mi SSW 3.5 mph - N/A   Clear
9:53 PM 75.0 °F - 73.9 °F 96% 30.01 in 10.0 mi Calm Calm - N/A   Clear
10:53 PM 73.9 °F - 73.0 °F 97% 30.01 in 10.0 mi Calm Calm - N/A   Clear
11:10 PM 73.4 °F - 73.4 °F 100% 30.01 in 1.8 mi Calm Calm - N/A   Clear
11:21 PM 73.4 °F - 73.4 °F 100% 30.01 in 2.5 mi Calm Calm - N/A   Clear
11:31 PM 73.4 °F - 73.4 °F 100% 30.01 in 5.0 mi Calm Calm - N/A   Clear
11:45 PM 73.4 °F - 73.4 °F 100% 30.01 in 1.8 mi Calm Calm - N/A   Clear
11:53 PM 73.0 °F - 72.0 °F 96% 30.01 in 1.5 mi Calm Calm - N/A   Clear
11:57 PM 73.4 °F - 71.6 °F 94% 30.01 in 3.0 mi Calm Calm - N/A   Clear